• In United Kingdom
  • List of Countries
  • For 7 days
  • Water Temperature
  • Satellite Maps
  • Weather Map
  • Weather Widgets
  • user-avatar
    Login

    Hourly Weather Wien

    Today, 18 August, Friday

    Time Temperature Precipitation Wind Pressure Humidity
    00:00 +22°C° 0 mm 1 mps 745 mmHg 61%
    01:00 +22°C° 0 mm 1 mps 745 mmHg 65%
    02:00 +22°C° 0 mm 1 mps 745 mmHg 66%
    03:00 +22°C° 0 mm 1 mps 745 mmHg 68%
    04:00 +21°C° 0 mm 1 mps 745 mmHg 70%
    05:00 +22°C° 0 mm 1 mps 745 mmHg 67%
    06:00 +23°C° 0 mm 1 mps 745 mmHg 64%
    07:00 +22°C° 0 mm 0 mps 746 mmHg 60%
    08:00 +26°C° 0 mm 1 mps 745 mmHg 55%
    09:00 +28°C° 0 mm 1 mps 745 mmHg 49%
    10:00 +30°C° 0 mm 1 mps 745 mmHg 44%
    11:00 +31°C° 0 mm 2 mps 745 mmHg 41%
    12:00 +34°C° 0 mm 2 mps 744 mmHg 37%
    13:00 +35°C° 0 mm 3 mps 744 mmHg 34%
    14:00 +35°C° 0 mm 3 mps 743 mmHg 33%
    15:00 +35°C° 0 mm 3 mps 743 mmHg 33%
    16:00 +35°C° 0 mm 3 mps 742 mmHg 32%
    17:00 +34°C° 0 mm 3 mps 742 mmHg 37%
    18:00 +31°C° 0 mm 3 mps 742 mmHg 42%
    19:00 +29°C° 0 mm 2 mps 742 mmHg 47%
    20:00 +28°C° 0 mm 2 mps 742 mmHg 48%
    21:00 +27°C° 0 mm 2 mps 742 mmHg 50%
    22:00 +26°C° 0 mm 2 mps 742 mmHg 51%
    23:00 +25°C° 0 mm 2 mps 742 mmHg 53%

    Tomorrow, 19 August, Saturday

    Time Temperature Precipitation Wind Pressure Humidity
    00:00 +25°C° 0 mm 3 mps 742 mmHg 54%
    01:00 +24°C° 0 mm 3 mps 742 mmHg 55%
    02:00 +24°C° 0 mm 3 mps 742 mmHg 61%
    03:00 +22°C° 0 mm 3 mps 742 mmHg 67%
    04:00 +21°C° 0 mm 4 mps 742 mmHg 74%
    05:00 +22°C° 0 mm 4 mps 743 mmHg 74%
    06:00 +22°C° 0 mm 5 mps 743 mmHg 74%
    07:00 +22°C° 0 mm 6 mps 743 mmHg 74%
    08:00 +22°C° 0.4 mm 6 mps 744 mmHg 73%
    09:00 +22°C° 0.4 mm 6 mps 744 mmHg 72%
    10:00 +22°C° 0.4 mm 6 mps 744 mmHg 71%
    11:00 +21°C° 0.8 mm 5 mps 744 mmHg 72%
    12:00 +21°C° 0.8 mm 5 mps 744 mmHg 74%
    13:00 +20°C° 0.8 mm 5 mps 745 mmHg 76%
    14:00 +20°C° 0.8 mm 5 mps 745 mmHg 78%
    15:00 +20°C° 0.8 mm 5 mps 745 mmHg 80%
    16:00 +19°C° 0.8 mm 5 mps 745 mmHg 81%
    17:00 +19°C° 1.3 mm 4 mps 745 mmHg 84%
    18:00 +18°C° 1.3 mm 4 mps 745 mmHg 86%
    19:00 +18°C° 1.3 mm 4 mps 746 mmHg 88%
    20:00 +18°C° 1.1 mm 4 mps 746 mmHg 88%
    21:00 +17°C° 1.1 mm 3 mps 746 mmHg 88%
    22:00 +17°C° 1.1 mm 3 mps 746 mmHg 88%
    23:00 +17°C° 0.1 mm 3 mps 746 mmHg 89%

    Day after tomorrow, 20 August, Sunday

    Time Temperature Precipitation Wind Pressure Humidity
    00:00 +17°C° 0.1 mm 3 mps 746 mmHg 89%
    01:00 +16°C° 0.1 mm 3 mps 746 mmHg 89%
    02:00 +16°C° 0.1 mm 3 mps 746 mmHg 88%
    03:00 +16°C° 0.1 mm 3 mps 745 mmHg 87%
    04:00 +15°C° 0.1 mm 4 mps 745 mmHg 87%
    05:00 +15°C° 0 mm 4 mps 746 mmHg 83%
    06:00 +15°C° 0 mm 5 mps 746 mmHg 79%
    07:00 +16°C° 0 mm 5 mps 746 mmHg 76%
    08:00 +17°C° 0 mm 5 mps 746 mmHg 68%
    09:00 +19°C° 0 mm 6 mps 746 mmHg 61%
    10:00 +21°C° 0 mm 6 mps 746 mmHg 54%
    11:00 +22°C° 0 mm 6 mps 746 mmHg 50%
    12:00 +23°C° 0 mm 5 mps 746 mmHg 47%
    13:00 +25°C° 0 mm 5 mps 746 mmHg 44%
    14:00 +23°C° 0.1 mm 5 mps 746 mmHg 44%
    15:00 +23°C° 0.1 mm 5 mps 746 mmHg 45%
    16:00 +23°C° 0.1 mm 4 mps 746 mmHg 46%
    17:00 +22°C° 0 mm 4 mps 746 mmHg 51%
    18:00 +20°C° 0 mm 3 mps 746 mmHg 56%
    19:00 +19°C° 0 mm 3 mps 746 mmHg 61%
    20:00 +18°C° 0 mm 3 mps 747 mmHg 65%
    21:00 +17°C° 0 mm 3 mps 747 mmHg 68%
    22:00 +16°C° 0 mm 3 mps 747 mmHg 72%
    23:00 +16°C° 0 mm 3 mps 747 mmHg 73%

    21 August, Monday

    Time Temperature Precipitation Wind Pressure Humidity
    00:00 +14°C° 0 mm 3 mps 747 mmHg 75%
    01:00 +14°C° 0 mm 3 mps 747 mmHg 76%
    02:00 +14°C° 0 mm 3 mps 747 mmHg 76%
    03:00 +13°C° 0 mm 3 mps 747 mmHg 76%
    04:00 +13°C° 0 mm 3 mps 747 mmHg 76%
    05:00 +14°C° 0 mm 4 mps 747 mmHg 73%
    06:00 +14°C° 0 mm 4 mps 747 mmHg 69%
    07:00 +15°C° 0 mm 5 mps 747 mmHg 65%
    08:00 +17°C° 0 mm 5 mps 747 mmHg 60%
    09:00 +19°C° 0 mm 5 mps 747 mmHg 54%
    10:00 +21°C° 0 mm 5 mps 747 mmHg 48%
    11:00 +22°C° 0 mm 5 mps 747 mmHg 45%
    12:00 +23°C° 0 mm 5 mps 746 mmHg 43%
    13:00 +23°C° 0 mm 5 mps 746 mmHg 40%
    14:00 +23°C° 0 mm 5 mps 746 mmHg 41%
    15:00 +23°C° 0 mm 5 mps 746 mmHg 42%
    16:00 +22°C° 0 mm 5 mps 746 mmHg 43%
    17:00 +21°C° 0 mm 4 mps 746 mmHg 48%
    18:00 +20°C° 0 mm 3 mps 746 mmHg 52%
    19:00 +19°C° 0 mm 3 mps 746 mmHg 57%
    20:00 +18°C° 0 mm 2 mps 746 mmHg 61%
    21:00 +17°C° 0 mm 2 mps 747 mmHg 64%
    22:00 +16°C° 0 mm 2 mps 747 mmHg 68%
    23:00 +15°C° 0 mm 2 mps 747 mmHg 70%

    22 August, Tuesday

    Time Temperature Precipitation Wind Pressure Humidity
    00:00 +15°C° 0 mm 2 mps 747 mmHg 72%
    01:00 +13°C° 0 mm 3 mps 747 mmHg 74%
    02:00 +13°C° 0 mm 3 mps 747 mmHg 75%
    03:00 +13°C° 0 mm 3 mps 747 mmHg 76%
    04:00 +12°C° 0 mm 3 mps 747 mmHg 77%
    05:00 +13°C° 0 mm 3 mps 747 mmHg 74%
    06:00 +14°C° 0 mm 3 mps 747 mmHg 70%
    07:00 +15°C° 0 mm 4 mps 747 mmHg 67%
    08:00 +18°C° 0 mm 4 mps 747 mmHg 61%
    09:00 +20°C° 0 mm 4 mps 747 mmHg 55%
    10:00 +21°C° 0 mm 4 mps 747 mmHg 49%
    11:00 +22°C° 0 mm 4 mps 746 mmHg 47%
    12:00 +23°C° 0 mm 4 mps 746 mmHg 45%
    13:00 +23°C° 0 mm 4 mps 746 mmHg 42%
    14:00 +23°C° 0 mm 4 mps 745 mmHg 42%
    15:00 +23°C° 0 mm 4 mps 745 mmHg 42%
    16:00 +25°C° 0 mm 4 mps 745 mmHg 42%
    17:00 +22°C° 0 mm 3 mps 745 mmHg 49%
    18:00 +20°C° 0 mm 3 mps 745 mmHg 55%
    19:00 +18°C° 0 mm 2 mps 745 mmHg 61%
    20:00 +18°C° 0 mm 2 mps 746 mmHg 64%
    21:00 +17°C° 0 mm 2 mps 746 mmHg 68%
    22:00 +16°C° 0 mm 2 mps 746 mmHg 71%
    23:00 +15°C° 0 mm 2 mps 746 mmHg 73%

    23 August, Wednesday

    Time Temperature Precipitation Wind Pressure Humidity
    00:00 +15°C° 0 mm 2 mps 746 mmHg 76%
    01:00 +14°C° 0 mm 1 mps 746 mmHg 78%
    02:00 +14°C° 0 mm 1 mps 746 mmHg 80%
    03:00 +14°C° 0 mm 1 mps 746 mmHg 81%
    04:00 +13°C° 0 mm 1 mps 746 mmHg 83%
    05:00 +14°C° 0 mm 1 mps 746 mmHg 78%
    06:00 +16°C° 0 mm 1 mps 746 mmHg 74%
    07:00 +18°C° 0 mm 1 mps 746 mmHg 69%
    08:00 +20°C° 0 mm 1 mps 746 mmHg 62%
    09:00 +22°C° 0 mm 1 mps 746 mmHg 55%
    10:00 +24°C° 0 mm 1 mps 746 mmHg 48%
    11:00 +25°C° 0 mm 2 mps 746 mmHg 43%
    12:00 +26°C° 0 mm 2 mps 746 mmHg 39%
    13:00 +27°C° 0 mm 2 mps 745 mmHg 35%
    14:00 +27°C° 0 mm 2 mps 745 mmHg 34%
    15:00 +27°C° 0 mm 2 mps 745 mmHg 33%
    16:00 +27°C° 0 mm 2 mps 745 mmHg 33%
    17:00 +25°C° 0 mm 2 mps 745 mmHg 38%
    18:00 +23°C° 0 mm 1 mps 745 mmHg 44%
    19:00 +21°C° 0 mm 1 mps 745 mmHg 49%
    20:00 +20°C° 0 mm 1 mps 745 mmHg 51%
    21:00 +19°C° 0 mm 1 mps 745 mmHg 54%
    22:00 +19°C° 0 mm 1 mps 746 mmHg 56%
    23:00 +18°C° 0 mm 1 mps 746 mmHg 58%
    Show more